DW5462 Weather Reports


time (UTC)temp
C
wind
direction
speed
KPH
gust
KPH
rain 1hr
cm
rain 24hr
cm
rain mn
cm
humidity
%
barometer
mb
20260504081529 17 265 0.0 3.2 0.00 0.00 0.00 53 1014.8
20260504044532 7 265 0.0 0.0 0.00 0.00 0.00 81 1014.7
20260504043028 7 265 0.0 0.0 0.00 0.00 0.00 80 1014.6
20260504041525 7 265 0.0 0.0 0.00 0.00 0.00 79 1014.5
20260504040028 8 265 0.0 0.0 0.00 0.00 0.00 79 1014.5
20260504034535 8 265 0.0 0.0 0.00 0.00 0.00 78 1014.5
20260504033023 9 265 0.0 0.0 0.00 0.00 0.00 78 1014.7
20260504031514 9 265 0.0 0.0 0.00 0.00 0.00 77 1014.5
20260504030058 10 265 0.0 0.0 0.00 0.00 0.00 77 1014.5
20260504024556 10 265 0.0 0.0 0.00 0.00 0.00 75 1014.6
20260504023054 10 265 0.0 0.0 0.00 0.00 0.00 75 1014.6
20260504021602 10 265 0.0 0.0 0.00 0.00 0.00 76 1014.7
20260504020051 10 265 0.0 0.0 0.00 0.00 0.00 75 1014.6
20260504014551 10 265 0.0 0.0 0.00 0.00 0.00 75 1014.5
20260504013055 10 265 0.0 0.0 0.00 0.00 0.00 74 1014.5
20260504011554 10 265 0.0 0.0 0.00 0.00 0.00 73 1014.6
20260504010033 10 265 0.0 0.0 0.00 0.00 0.00 74 1014.6
20260504004530 11 265 0.0 0.0 0.00 0.00 0.00 73 1014.6
20260504003016 11 265 0.0 0.0 0.00 0.00 0.00 70 1014.7
20260504001515 11 265 0.0 0.0 0.00 0.00 0.00 70 1014.7
20260504000012 11 265 0.0 0.0 0.00 0.00 0.00 70 1014.8
20260503234511 11 265 0.0 0.0 0.00 0.00 0.00 70 1014.9
20260503233008 11 265 0.0 0.0 0.00 0.00 0.00 67 1015.0
20260503231506 12 265 0.0 0.0 0.00 0.00 0.00 65 1015.1
20260503230002 12 265 0.0 0.0 0.00 0.00 0.00 64 1015.1
20260503224559 12 265 0.0 0.0 0.00 0.00 0.00 62 1015.1
20260503223045 13 265 0.0 0.0 0.00 0.00 0.00 60 1015.1
20260503221541 13 265 0.0 0.0 0.00 0.00 0.00 58 1015.1
20260503220041 14 265 0.0 0.0 0.00 0.00 0.00 58 1015.0
20260503214547 14 265 0.0 0.0 0.00 0.00 0.00 52 1015.0
20260503213057 14 265 0.0 0.0 0.00 0.00 0.00 52 1015.0
20260503211557 15 265 0.0 1.6 0.00 0.00 0.00 51 1014.9
20260503210037 15 265 0.0 0.0 0.00 0.00 0.00 50 1014.7
20260503204552 15 265 0.0 4.8 0.00 0.00 0.00 50 1014.6
20260503203025 15 265 0.0 4.8 0.00 0.00 0.00 49 1014.5
20260503201526 15 265 0.0 9.7 0.00 0.00 0.00 48 1014.4
20260503200023 16 268 0.0 11.3 0.00 0.00 0.00 48 1014.3
20260503194525 16 273 1.6 11.3 0.00 0.00 0.00 47 1014.2
20260503193021 16 261 0.0 17.7 0.00 0.00 0.00 47 1013.9
20260503191522 17 252 1.6 12.9 0.00 0.00 0.00 47 1014.0
20260503190020 17 265 1.6 19.3 0.00 0.00 0.00 48 1014.0
20260503184524 18 276 1.6 20.9 0.00 0.00 0.00 48 1013.6
20260503183020 18 236 0.0 0.0 0.00 0.00 0.00 56 1013.0
20260503181519 18 227 0.0 4.8 0.00 0.00 0.00 55 1013.0
20260503180016 19 256 1.6 11.3 0.00 0.00 0.00 53 1013.2
20260503174517 20 253 1.6 14.5 0.00 0.00 0.00 50 1012.9
20260503173007 21 252 0.0 9.7 0.00 0.00 0.00 46 1012.8
20260503171513 21 293 0.0 1.6 0.00 0.00 0.00 45 1012.5